Location: Central Coast
(33.3208°S, 151.2336°E)
Time: 10:33:29
(UTC+11:00)

Tiangong 2 - Pass Details

Date: 16 October 2017
Orbit: 386 x 390 km, 42.8° (Epoch: 12 December)

Event Time Altitude Azimuth Distance (km) Brightness Sun altitude
Rises 20:34:32 0° 248° (WSW) 2,290 6.7 -17.9°
Reaches altitude 10° 20:36:44 10° 258° (WSW) 1,428 5.1 -18.3°
Maximum altitude 20:39:40 32° 323° (NW) 690 2.4 -18.9°
Enters shadow 20:40:06 31° 341° (NNW) 713 2.3 -19.0°
